Weather in Bijapur

India     16°49′33″N   75°43′29″E
temp.,
°C
wind,
m/s
gust,
m/s
humid.,
%
clouds,
%
prec.,
mm/h
press.,
hPa
HPBL,
m
23 september, thu
thu2323:30+23w5786100 3.4 1007300
02:30+22w5889100 0.1 1006295
05:30+22w4691100 0.1 1006225
08:30+24wnw458025 0.0 1009440
11:30+27wnw446462 0.1 10081250
14:30+28wnw4461100 1.0 10041236
17:30+25w7877100 4.1 1005541
20:30+24w71083100 4.5 1008383
24 september, fri
fri2423:30+23w698890 5.8 1009367
02:30+22w589198 1.5 1007335
05:30+22w469197 2.4 1008258
08:30+24wnw448154 0.1 1010428
11:30+27nw4464100 0.1 10091191
14:30+28nw445791 0.1 10061422
17:30+28nw3462100 0.1 1005165
20:30+26w5975100 0.4 1008255
25 september, sat
sat2523:30+24wsw6986100 1.9 1009341
02:30+22w6890100 1.0 1008313
05:30+23w4689100 3.1 1008221
08:30+22w4589100 1.7 1010258
11:30+24w3682100 2.0 1009387
14:30+28wnw356180 0.1 10051012
17:30+27nnw3571100 0.7 1005122
20:30+24w61081100 2.9 1007250
26 september, sun
sun2623:30+23w6108799 3.8 1007310
02:30+22w5992100 2.5 1006332
05:30+22w469296 5.1 1006282
08:30+23w3485100 0.9 1009382
11:30+26nnw227194 1.3 1007985
14:30+28nnw236298 0.1 10041193
17:30+27ne226998 0.3 1004299
20:30+25wsw468067 1.6 1006160
27 september, mon
mon2723:30+23w588698 3.3 1006225
02:30+22w478998 0.0 1005225
05:30+22w3590100 0.0 1005142
08:30+24wnw338075 0.0 1007385
11:30+27w226667 0.0 1006987
14:30+29w2257100 0.9 10021432
17:30+29w236196 1.3 1003579
20:30+27wsw346890 0.6 1005101